Regional Weather Roundup
Issued by NWS

Home | Current Version | Previous Version | Graphics & Text | Print | Product List | Glossary On
Versions: 1 2 3 4 5 6 7 8 9 10 11 12 13 14 15 16 17 18 19 20 21 22 23 24 25 26 27 28 29 30 31 32 33 34 35 36 37 38 39 40 41 42 43 44 45 46 47 48 49 50
000
ASUS43 KLOT 020312
RWRIL

ILLINOIS REGIONAL WEATHER ROUNDUP
NATIONAL WEATHER SERVICE CHICAGO/ROMEOVILLE IL
1000 PM CDT SAT AUG 01 2015

NOTE: "FAIR" INDICATES FEW OR NO CLOUDS BELOW 12,000 FEET WITH NO
SIGNIFICANT WEATHER AND/OR OBSTRUCTIONS TO VISIBILITY.

* THESE STATIONS ARE NOT UNDER NWS QUALITY CONTROL. THEY ALSO MAY NOT
  REPORT WEATHER SUCH AS PRECIPITATION OR FOG.

ILZ001-002-007-009-015-016-024-020400-
NORTHWEST ILLINOIS

CITY           SKY/WX    TMP DP  RH WIND       PRES   REMARKS
MOLINE         PTCLDY    74  67  78 S7        29.91S
STERLING*      PTCLDY    73  66  78 W5        29.89S
SAVANNA*       CLEAR     74  67  78 SW7       29.91R
$$

ILZ003-004-008-010-011-017-018-020400-
NORTH CENTRAL ILLINOIS

CITY           SKY/WX    TMP DP  RH WIND       PRES   REMARKS
ROCKFORD       CLEAR     72  65  78 S5        29.92R
FREEPORT*      CLEAR     71  67  87 SW9       29.93R
ROCHELLE*      PTCLDY    69  66  91 SW5       29.92S
DE KALB*       PTCLDY    74  65  74 SW10      29.92S
PERU*          MOCLDY    74  65  74 SW8       29.93S
$$

ILZ005-006-012>014-019>023-020400-
NORTHEAST ILLINOIS

CITY           SKY/WX    TMP DP  RH WIND       PRES   REMARKS
CHICAGO-OHARE  PTCLDY    77  63  61 SW8       29.90S
CHICAGO-MIDWAY MOCLDY    79  62  56 SW8       29.91R HX  80
AURORA         MOCLDY    74  64  71 SW7       29.92S
LANSING*       MOCLDY    74  62  66 SW7       29.92S
JOLIET*        MOCLDY    77  66  68 SW5       29.93R
WAUKEGAN       CLEAR     76  65  68 SW3       29.88S
DUPAGE AIRPORT PTCLDY    74  65  73 SW9       29.91S
KANKAKEE*      PTCLDY    71  67  89 CALM      29.95R
WHEELING       PTCLDY    79  62  56 W7        29.90S HX  80
MORRIS*        MOCLDY    73  65  78 SW6       29.92S
ROMEOVILLE*    MOCLDY    75  63  64 SW7       29.92S
NORTHERLY ISL    N/A     80  61  52 W6          N/A  HX  81
$$

LMZ740>746-020400-
SOUTHERN LAKE MICHIGAN

STATION/POSITION SKY/WX   TEMP    WIND        PRES    VSBY  WAVE
                          AIR SEA DIR/SP/G                  HT/PER
                          (F)     (DEG/KT/KT) (MB)    (MI)  (FT/S)
HARRISON CRIB              81     240/ 16/ 19   N/A
BURNHAM HARBOR             80     240/  3/ 12   N/A
CALUMET HARBOR             80     230/  6/ 11   N/A
BURNS HARBOR               79     230/ 12/ 15 1013.2R
MICHIGAN CITY              78     190/ 14/ 18   N/A
MICHIGAN CITY 6N           77 74  240/ 14/ 16   N/A           2
ST. JOSEPH                 75 74  260/ 12/ 14   N/A           1
$$

ILZ025>027-034>036-040-047-049-050-058-095>099-020400-
WEST-CENTRAL ILLINOIS

CITY           SKY/WX    TMP DP  RH WIND       PRES   REMARKS
QUINCY         CLEAR     75  71  87 S5        29.97R
GALESBURG*     PTCLDY    72  68  87 S5        29.94S
MACOMB*        CLEAR     73  71  93 S5        29.97R
JACKSONVILLE*  CLEAR     75  69  82 CALM      29.97R
PITTSFIELD*    CLEAR     74  70  86 CALM      29.98R
$$

ILZ028>032-037-038-041>044-048-051>054-059>061-020400-
CENTRAL ILLINOIS

CITY           SKY/WX    TMP DP  RH WIND       PRES   REMARKS
PONTIAC        MOCLDY    73  68  84 SW3       29.95S
BLOOMINGTON    MOCLDY    73  66  78 SW7       29.98R
DECATUR        PTCLDY    73  63  70 SW6       29.98R
PEORIA         PTCLDY    76  64  66 S5        29.95R
LACON*         PTCLDY    73  64  73 SW3       29.93S
LINCOLN*       MOCLDY    72  65  79 CALM      29.96R
SPRINGFIELD    PTCLDY    72  65  78 S3        29.97R
TAYLORVILLE    PTCLDY    70  64  83 CALM      29.98S
$$

ILZ033-039-045-046-055>057-062-063-020400-
EAST-CENTRAL ILLINOIS

CITY           SKY/WX    TMP DP  RH WIND       PRES   REMARKS
CHAMPAIGN      PTCLDY    69  64  84 SW6       29.98R
DANVILLE*      PTCLDY    65  64  97 CALM      29.95R
RANTOUL*       PTCLDY    73  66  77 SW6       29.97R
MATTOON        PTCLDY    73  62  68 SW6       29.97S
PARIS*         PTCLDY    65  64  94 SW3       29.99R
$$

ILZ079-100>102-020400-
SOUTHWEST ILLINOIS

CITY           SKY/WX    TMP DP  RH WIND       PRES   REMARKS
ALTON          CLEAR     73  70  88 CALM      29.98R
BELLEVILLE     CLOUDY    78  71  80 CALM      29.97R HX  80
CAHOKIA*       CLOUDY    78  69  73 S5        29.97R HX  80
SPARTA*        PTCLDY    76  69  80 SE3       29.99S
$$

ILZ064>066-069>071-074>076-080>082-084>086-088>090-092>094-020400-
SOUTH-CENTRAL ILLINOIS

CITY           SKY/WX    TMP DP  RH WIND       PRES   REMARKS
CARBONDALE     PTCLDY    74  71  91 CALM      29.98R
CAIRO*         CLEAR     76  72  88 CALM      29.98R
EFFINGHAM*     PTCLDY    69  65  85 CALM      30.00S
MARION         PTCLDY    75  68  78 CALM      29.99S
MT. VERNON     PTCLDY    68  63  83 CALM      30.00R
CENTRALIA*     PTCLDY    70  66  87 E3        29.98S
SALEM*         PTCLDY    71  67  86 CALM      29.99R
METROPOLIS*    CLEAR     74  74 100 CALM      29.99S
$$

ILZ067-068-072-073-078-083-087-091-020400-
SOUTHEAST ILLINOIS

CITY           SKY/WX    TMP DP  RH WIND       PRES   REMARKS
LAWRENCEVILLE  MOCLDY    69  65  86 SE3       29.99R
FLORA*         MOCLDY    69  65  86 CALM      29.99S
FAIRFIELD*     CLEAR     70  65  85 CALM      29.98R
HARRISBURG*    CLEAR     70  69  98 CALM      30.00R
ROBINSON*      PTCLDY    66  64  92 CALM      29.99R
CARMI*         CLEAR     69  63  80 CALM      29.98R
$$

ABBREVIATIONS USED IN REMARKS
   TC - TEMPERATURE IN CELSIUS
  WCI - WIND CHILL INDEX
   HX - HEAT INDEX
  VSB - VISIBILITY
$$



USA.gov is the U.S. government's official web portal to all federal, state and local government web resources and services.